Location: South Tamworth Observatory
(43.8246°N, 71.3026°W)
Time: 07:07:03
(UTC-04:00)

Amateur Radio Satellites - All Passes

Search period start: 26 May 2017 06:37
Search period end: 27 May 2017 06:37
Location: South Tamworth Observatory, 43.8246°N, 71.3026°W

Satellite Date Start Highest point End Downlink Frequencies (MHz)
Time Altitude Azimuth
XW-2D 26 May 06:40:56 06:44:42 49° 99° (E) 06:48:26 145.860 - 145.880
XW-2B 26 May 06:48:49 06:52:39 60° 100° (E) 06:56:26 145.730 - 145.750
DOVE 4 26 May 06:51:30 06:55:39 72° 285° (WNW) 06:59:52 437.250
RS-15 26 May 07:01:38 07:11:43 28° 356° (N) 07:21:42 29.354- 29.394
XW-2F 26 May 07:01:52 07:05:44 84° 103° (ESE) 07:09:33 145.980 - 146.000
XW-2C 26 May 07:02:25 07:06:19 89° 107° (ESE) 07:10:09 145.795 - 145.815
NUDT-PHONESAT 26 May 07:02:52 07:06:39 69° 102° (ESE) 07:10:23 437.300
AO-7 26 May 07:03:32 07:08:46 19° 314° (NW) 07:14:01 .
KAITUO 1B 26 May 07:10:30 07:14:20 88° 94° (E) 07:18:08 145.475/437.950
BEESAT 2 26 May 07:11:33 07:15:22 43° 310° (NW) 07:19:15 435.950
SO-50 26 May 07:14:41 07:19:13 76° 54° (NE) 07:23:44 436.795
HO-68 26 May 07:24:26 07:30:42 31° 95° (E) 07:36:55 435.675
CUTE 1.7 + AOD 2 26 May 07:26:17 07:29:43 23° 94° (E) 07:33:07 437.475
STRAND 1 26 May 07:32:46 07:37:50 68° 258° (WSW) 07:42:57 437.568
BEESAT 3 26 May 07:35:19 07:37:34 14° 323° (NW) 07:39:50 437.485
LilacSat-2 26 May 07:40:14 07:43:42 31° 290° (WNW) 07:47:08 437.200
XW-2A 26 May 07:42:44 07:45:42 27° 96° (E) 07:48:40 145.665 - 145.685
AAUSAT CUBESAT 2 26 May 07:44:47 07:45:41 11° 88° (E) 07:46:35 437.432
CUTE-I 26 May 07:55:28 08:00:32 45° 291° (WNW) 08:05:35 437.470
CUBEBUG 2 26 May 07:57:41 08:01:36 27° 95° (E) 08:05:33 437.445
M-CUBED/EXP-1 PRIME 26 May 07:58:50 08:03:05 76° 69° (ENE) 08:07:01 437.505
UWE-3 26 May 08:09:29 08:13:04 22° 93° (E) 08:16:41 435.000/436.395/437.385
FO-29 26 May 08:11:40 08:12:49 11° 53° (NE) 08:13:57 435.910
SEEDS 26 May 08:16:10 08:20:18 52° 99° (E) 08:24:23 437.485
XW-2D 26 May 08:16:27 08:18:28 14° 296° (WNW) 08:20:28 145.860 - 145.880
XW-2B 26 May 08:24:51 08:26:20 12° 297° (WNW) 08:27:49 145.730 - 145.750
NUDT-PHONESAT 26 May 08:39:40 08:39:59 10° 298° (WNW) 08:40:17 437.300
TIGRISAT 26 May 08:40:27 08:42:36 14° 61° (ENE) 08:44:46 435.000
Oscar 11 26 May 08:44:40 08:47:55 20° 93° (E) 08:51:09 .
SO-50 26 May 08:57:01 08:59:04 13° 251° (WSW) 09:01:06 436.795
NO-84 26 May 09:01:30 09:05:49 61° 137° (SE) 09:10:01 435.350 FM
CUTE 1.7 + AOD 2 26 May 09:01:46 09:05:35 32° 291° (WNW) 09:09:23 437.475
AO-73 26 May 09:09:49 09:14:13 48° 99° (E) 09:18:38 145.935
UNISAT 6 26 May 09:10:11 09:13:52 29° 68° (ENE) 09:17:36 437.425
HO-68 26 May 09:11:43 09:18:42 55° 294° (WNW) 09:25:39 435.675
XW-2A 26 May 09:15:50 09:18:17 19° 292° (WNW) 09:20:45 145.665 - 145.685
AAUSAT CUBESAT 2 26 May 09:17:29 09:21:36 68° 286° (WNW) 09:25:41 437.432
RS-15 26 May 09:17:36 09:28:56 39° 30° (NNE) 09:39:49 29.354- 29.394
ZACube-1 26 May 09:23:24 09:27:58 74° 101° (ESE) 09:32:32 437.345
PRISM 26 May 09:26:32 09:30:35 56° 73° (ENE) 09:34:38 437.425
CUBEBUG 2 26 May 09:34:07 09:38:12 33° 291° (WNW) 09:42:22 437.445
M-CUBED/EXP-1 PRIME 26 May 09:37:25 09:37:49 10° 264° (W) 09:38:13 437.505
DELFI C3 26 May 09:41:29 09:44:33 21° 94° (E) 09:47:35 145.870
UWE-3 26 May 09:45:21 09:49:38 40° 289° (WNW) 09:53:57 435.000/436.395/437.385
FO-29 26 May 09:51:45 09:56:54 77° 74° (ENE) 10:02:15 435.910
EO-88 26 May 09:52:12 09:54:56 19° 94° (E) 09:57:39 145.990 - 145.960
SEEDS 26 May 09:53:03 09:55:34 16° 297° (WNW) 09:58:04 437.485
TIGRISAT 26 May 10:14:31 10:18:45 64° 260° (W) 10:23:04 435.000
Oscar 11 26 May 10:20:07 10:24:11 39° 289° (WNW) 10:28:13 .
NANOSAT C BR1 26 May 10:31:54 10:34:09 14° 62° (ENE) 10:36:25 145.865
POLYITAN 1 26 May 10:35:27 10:38:11 17° 64° (ENE) 10:40:56 437.675
NO-84 26 May 10:39:46 10:43:40 31° 334° (NNW) 10:47:23 435.350 FM
DUCHIFAT 1 26 May 10:42:25 10:45:03 16° 63° (ENE) 10:47:41 145.980
QB50P2 26 May 10:43:30 10:46:44 22° 66° (ENE) 10:50:00 145.880/145.840
AO-73 26 May 10:46:53 10:50:06 19° 296° (WNW) 10:53:20 145.935
UNISAT 6 26 May 10:46:55 10:50:33 27° 265° (W) 10:54:15 437.425
ZACube-1 26 May 11:01:27 11:03:39 13° 299° (WNW) 11:05:52 437.345
HO-68 26 May 11:02:21 11:04:52 12° 314° (NW) 11:07:23 435.675
PRISM 26 May 11:04:16 11:06:12 13° 269° (W) 11:08:08 437.425
AIST 2D 26 May 11:10:00 11:13:30 74° 76° (ENE) 11:17:03 435.315
DELFI C3 26 May 11:15:54 11:19:21 30° 291° (WNW) 11:22:47 145.870
EO-79 26 May 11:19:51 11:23:53 48° 72° (ENE) 11:27:56 145.935-145.965
EO-88 26 May 11:25:25 11:28:38 29° 290° (WNW) 11:31:50 145.990 - 145.960
RS-15 26 May 11:30:43 11:43:01 86° 238° (WSW) 11:54:41 29.354- 29.394
FO-29 26 May 11:40:37 11:42:47 12° 273° (W) 11:44:59 435.910
YUBILEINY 26 May 11:45:54 11:54:21 46° 73° (ENE) 12:02:44 435.215
NANOSAT C BR1 26 May 12:05:18 12:09:23 57° 259° (W) 12:13:33 145.865
ESTCUBE 1 26 May 12:07:04 12:11:32 58° 100° (E) 12:15:57 437.505/2401.250
LO-87 26 May 12:09:33 12:13:04 62° 285° (WNW) 12:16:35 145.935 - 145.965
POLYITAN 1 26 May 12:09:35 12:13:36 46° 260° (W) 12:17:41 437.675
DUCHIFAT 1 26 May 12:16:19 12:20:20 48° 260° (W) 12:24:23 145.980
QB50P2 26 May 12:18:30 12:22:20 34° 263° (W) 12:26:12 145.880/145.840
NO-84 26 May 12:19:29 12:22:15 17° 355° (N) 12:24:54 435.350 FM
AO-7 26 May 12:32:15 12:34:30 11° 37° (NE) 12:36:45 .
BEESAT 3 26 May 12:35:00 12:36:44 12° 35° (NE) 12:38:27 437.485
BUGSAT 1 26 May 12:35:51 12:39:51 86° 77° (ENE) 12:43:53 437.445
Gurwin Techsat 1B 26 May 12:40:27 12:44:42 25° 63° (ENE) 12:48:57 435.225
AO-85 26 May 12:52:26 12:56:12 38° 49° (NE) 13:00:07 145.980
EO-79 26 May 12:57:26 12:59:55 15° 269° (W) 13:02:25 145.935-145.965
SPROUT 26 May 13:01:14 13:05:28 58° 101° (E) 13:09:41 437.525
Oscar 19 26 May 13:04:22 13:09:29 63° 72° (ENE) 13:14:38 437.125/150
VELOX 1 26 May 13:04:26 13:08:47 60° 101° (ESE) 13:13:06 145.980
50 SAT 26 May 13:25:50 13:29:13 56° 101° (ESE) 13:32:32 437.505
UKube-1 26 May 13:34:17 13:38:05 30° 97° (E) 13:41:53 .
O/OREOS (USA 219) 26 May 13:37:55 13:42:24 58° 64° (ENE) 13:46:50 437.305
DX 1 26 May 13:41:03 13:45:18 52° 100° (E) 13:49:31 434.975-435.025
YUBILEINY 26 May 13:42:57 13:51:03 42° 274° (W) 13:59:08 435.215
RS-15 26 May 13:45:02 13:53:38 24° 261° (W) 14:02:00 29.354- 29.394
ESTCUBE 1 26 May 13:45:06 13:47:53 16° 298° (WNW) 13:50:38 437.505/2401.250
BEESAT 2 26 May 13:50:34 13:53:47 22° 43° (NE) 13:56:57 435.950
NO-84 26 May 13:57:54 14:01:00 21° 16° (NNE) 14:03:55 435.350 FM
ITAMSAT 1 26 May 14:06:43 14:10:39 23° 62° (ENE) 14:14:37 435.822/435.867
BEESAT 3 26 May 14:10:59 14:15:02 75° 56° (ENE) 14:19:00 437.485
AO-7 26 May 14:17:27 14:25:07 44° 60° (ENE) 14:32:49 .
Gurwin Techsat 1B 26 May 14:19:15 14:24:21 47° 261° (W) 14:29:30 435.225
AO-85 26 May 14:33:11 14:36:24 23° 245° (WSW) 14:39:45 145.980
BEESAT 26 May 14:37:54 14:40:27 14° 90° (E) 14:42:59 436.000
SPROUT 26 May 14:38:31 14:40:54 15° 298° (WNW) 14:43:17 437.525
VELOX 1 26 May 14:42:16 14:44:45 15° 298° (WNW) 14:47:14 145.980
Oscar 19 26 May 14:45:50 14:49:13 17° 269° (W) 14:52:38 437.125/150
UKube-1 26 May 15:10:26 15:14:01 26° 293° (WNW) 15:17:35 .
DX 1 26 May 15:18:21 15:21:05 17° 297° (WNW) 15:23:48 434.975-435.025
O/OREOS (USA 219) 26 May 15:18:49 15:21:17 15° 261° (W) 15:23:43 437.305
BEESAT 2 26 May 15:27:51 15:31:45 46° 241° (WSW) 15:35:37 435.950
NO-84 26 May 15:35:19 15:39:08 77° 37° (NE) 15:42:36 435.350 FM
ITUPSAT 1 26 May 15:40:11 15:44:57 57° 101° (E) 15:49:40 437.325
ITAMSAT 1 26 May 15:44:46 15:49:46 51° 260° (W) 15:54:50 435.822/435.867
BEESAT 3 26 May 15:51:02 15:51:59 11° 252° (WSW) 15:52:56 437.485
MOZHAYETS 4 26 May 15:57:50 16:02:24 51° 100° (E) 16:06:54
AO-7 26 May 16:09:56 16:17:48 47° 260° (W) 16:25:45 .
BEESAT 26 May 16:13:54 16:18:41 67° 287° (WNW) 16:23:25 436.000
DOVE 4 26 May 16:22:47 16:25:12 14° 63° (ENE) 16:27:34 437.250
CUBESAT XI-V 26 May 16:43:40 16:47:42 29° 95° (E) 16:51:42 437.345
LilacSat-2 26 May 16:50:40 16:52:32 13° 63° (ENE) 16:54:25 437.200
KKS-1 26 May 16:52:35 16:56:25 28° 96° (E) 17:00:13 437.445
NO-84 26 May 17:14:27 17:16:05 13° 237° (WSW) 17:17:39 435.350 FM
ITUPSAT 1 26 May 17:19:04 17:22:20 18° 298° (WNW) 17:25:36 437.325
XW-2D 26 May 17:23:28 17:26:46 29° 70° (ENE) 17:30:06 145.860 - 145.880
STARS 26 May 17:23:58 17:27:38 26° 95° (E) 17:31:19 437.465
XW-2B 26 May 17:31:14 17:34:41 34° 71° (ENE) 17:38:10 145.730 - 145.750
MOZHAYETS 4 26 May 17:35:56 17:39:09 19° 297° (WNW) 17:42:22
CUTE-I 26 May 17:38:51 17:43:54 46° 69° (ENE) 17:48:58 437.470
NUDT-PHONESAT 26 May 17:43:16 17:46:41 36° 71° (ENE) 17:50:09 437.300
XW-2F 26 May 17:43:41 17:47:19 46° 73° (ENE) 17:51:01 145.980 - 146.000
XW-2C 26 May 17:44:36 17:48:17 49° 73° (ENE) 17:52:01 145.795 - 145.815
KAITUO 1B 26 May 17:51:26 17:55:03 46° 73° (ENE) 17:58:43 145.475/437.950
HO-68 26 May 17:55:01 18:00:54 28° 58° (ENE) 18:06:46 435.675
DOVE 4 26 May 17:57:54 18:02:28 63° 259° (W) 18:06:50 437.250
PCSat 26 May 18:16:34 18:20:14 19° 105° (ESE) 18:23:54 145.827
XW-2A 26 May 18:16:49 18:18:11 12° 65° (ENE) 18:19:35 145.665 - 145.685
CUTE 1.7 + AOD 2 26 May 18:20:22 18:23:33 21° 66° (ENE) 18:26:44 437.475
CUBESAT XI-V 26 May 18:20:57 18:25:03 31° 292° (WNW) 18:29:06 437.345
LilacSat-2 26 May 18:22:37 18:26:22 52° 260° (W) 18:30:10 437.200
KKS-1 26 May 18:29:05 18:32:56 30° 293° (WNW) 18:36:47 437.445
CUBEBUG 2 26 May 18:57:30 19:00:51 24° 67° (ENE) 19:04:16 437.445
XW-2D 26 May 18:58:01 19:00:58 21° 266° (W) 19:03:57 145.860 - 145.880
STARS 26 May 19:00:06 19:03:58 31° 292° (WNW) 19:07:51 437.465
XW-2B 26 May 19:06:19 19:08:58 18° 267° (W) 19:11:39 145.730 - 145.750
UWE-3 26 May 19:08:16 19:11:18 20° 65° (ENE) 19:14:24 435.000/436.395/437.385
SEEDS 26 May 19:08:42 19:12:43 42° 71° (ENE) 19:16:45 437.485
NUDT-PHONESAT 26 May 19:18:22 19:20:44 16° 268° (W) 19:23:07 437.300
XW-2F 26 May 19:19:49 19:21:43 13° 269° (W) 19:23:37 145.980 - 146.000
CUTE-I 26 May 19:19:54 19:24:09 24° 266° (W) 19:28:25 437.470
XW-2C 26 May 19:21:07 19:22:47 12° 270° (W) 19:24:27 145.795 - 145.815
KAITUO 1B 26 May 19:27:31 19:29:19 13° 269° (W) 19:31:08 145.475/437.950
Oscar 11 26 May 19:40:55 19:44:01 19° 65° (ENE) 19:47:07 .
HO-68 26 May 19:41:00 19:48:06 65° 257° (WSW) 19:55:17 435.675
STRAND 1 26 May 19:41:57 19:46:43 37° 97° (E) 19:51:28 437.568
XW-2A 26 May 19:47:22 19:50:33 41° 261° (W) 19:53:48 145.665 - 145.685
Tancredo 1 26 May 19:50:10 19:52:39 22° 137° (SE) 19:55:08 437.200
CUTE 1.7 + AOD 2 26 May 19:55:06 19:59:07 39° 263° (W) 20:03:10 437.475
PCSat 26 May 19:57:41 20:03:04 67° 303° (WNW) 20:08:30 145.827
AO-73 26 May 20:06:28 20:10:24 41° 71° (ENE) 20:14:29 145.935
AAUSAT CUBESAT 2 26 May 20:08:11 20:12:23 90° 265° (W) 20:16:36 437.432
ZACube-1 26 May 20:20:13 20:24:23 64° 75° (ENE) 20:28:41 437.345
ISS 26 May 20:21:13 20:24:09 30° 138° (SE) 20:27:05 437.550
DELFI C3 26 May 20:28:43 20:31:12 16° 65° (ENE) 20:33:42 145.870
EO-88 26 May 20:32:49 20:34:03 11° 63° (ENE) 20:35:18 145.990 - 145.960
CUBEBUG 2 26 May 20:33:39 20:37:20 31° 264° (W) 20:41:07 437.445
UWE-3 26 May 20:43:33 20:47:28 39° 263° (W) 20:51:31 435.000/436.395/437.385
SEEDS 26 May 20:45:39 20:48:35 18° 268° (W) 20:51:33 437.485
M-CUBED/EXP-1 PRIME 26 May 21:10:45 21:13:48 34° 104° (ESE) 21:16:48 437.505
Oscar 11 26 May 21:15:42 21:19:50 43° 262° (W) 21:24:01 .
STRAND 1 26 May 21:21:21 21:25:46 30° 295° (WNW) 21:30:10 437.568
Tancredo 1 26 May 21:25:14 21:28:14 48° 334° (NNW) 21:31:14 437.200
SO-50 26 May 21:31:34 21:34:33 17° 111° (ESE) 21:37:31 436.795
HO-68 26 May 21:36:09 21:37:11 10° 276° (W) 21:38:13 435.675
AO-73 26 May 21:43:54 21:46:52 18° 269° (W) 21:49:52 145.935
PCSat 26 May 21:44:27 21:47:31 15° 325° (NW) 21:50:37 145.827
ISS 26 May 21:57:23 22:00:34 43° 336° (NNW) 22:03:44 437.550
ZACube-1 26 May 21:59:35 22:01:09 12° 272° (W) 22:02:45 437.345
DELFI C3 26 May 22:01:48 22:05:38 44° 261° (W) 22:09:28 145.870
EO-88 26 May 22:03:40 22:07:15 55° 259° (W) 22:10:54 145.990 - 145.960
TIGRISAT 26 May 22:04:39 22:08:26 24° 94° (E) 22:12:14 435.000
UNISAT 6 26 May 22:35:54 22:40:25 54° 100° (E) 22:45:00 437.425
PRISM 26 May 22:41:28 22:45:33 77° 102° (ESE) 22:49:36 437.425
FO-29 26 May 22:42:07 22:48:31 64° 102° (ESE) 22:55:41 435.910
M-CUBED/EXP-1 PRIME 26 May 22:46:13 22:48:00 14° 301° (WNW) 22:49:46 437.505
LO-87 26 May 22:46:29 22:49:58 59° 75° (ENE) 22:53:28 145.935 - 145.965
Tancredo 1 26 May 23:02:10 23:04:31 19° 354° (N) 23:06:52 437.200
ESTCUBE 1 26 May 23:07:27 23:11:55 62° 73° (ENE) 23:16:25 437.505/2401.250
SO-50 26 May 23:10:02 23:14:34 60° 308° (NW) 23:19:04 436.795
ISS 26 May 23:35:04 23:37:38 21° 356° (N) 23:40:13 437.550
TIGRISAT 26 May 23:40:58 23:45:10 36° 291° (WNW) 23:49:26 435.000
NANOSAT C BR1 26 May 23:48:43 23:51:52 20° 93° (E) 23:55:01 145.865
POLYITAN 1 26 May 23:53:09 23:56:41 25° 95° (E) 00:00:12 437.675
RS-15 26 May 23:53:15 23:56:13 11° 91° (E) 23:59:13 29.354- 29.394
SPROUT 26 May 23:55:32 23:59:38 51° 72° (ENE) 00:03:45 437.525
DUCHIFAT 1 26 May 23:59:07 00:02:32 23° 94° (E) 00:05:56 145.980
50 SAT 26 May 23:59:32 00:02:26 25° 69° (ENE) 00:05:19 437.505
QB50P2 27 May 00:01:35 00:05:27 32° 97° (E) 00:09:18 145.880/145.840
VELOX 1 27 May 00:02:33 00:06:55 62° 73° (ENE) 00:11:17 145.980
AIST 2D 27 May 00:06:44 00:10:20 76° 102° (ESE) 00:13:53 435.315
UNISAT 6 27 May 00:13:39 00:16:44 18° 297° (WNW) 00:19:49 437.425
BUGSAT 1 27 May 00:18:15 00:19:29 11° 90° (E) 00:20:44 437.445
PRISM 27 May 00:19:16 00:20:13 11° 300° (WNW) 00:21:10 437.425
FO-29 27 May 00:28:06 00:33:12 26° 297° (WNW) 00:38:46 435.910
UKube-1 27 May 00:29:51 00:33:39 31° 68° (ENE) 00:37:27 .
DX 1 27 May 00:37:30 00:41:44 53° 72° (ENE) 00:45:59 434.975-435.025
EO-79 27 May 00:38:23 00:42:39 77° 101° (ESE) 00:46:55 145.935-145.965
Tancredo 1 27 May 00:38:26 00:41:00 23° 14° (NNE) 00:43:32 437.200
ESTCUBE 1 27 May 00:46:44 00:49:08 14° 270° (W) 00:51:32 437.505/2401.250
YUBILEINY 27 May 00:48:26 00:56:40 50° 89° (E) 01:05:00 435.215
SO-50 27 May 00:53:58 00:55:57 13° 329° (NNW) 00:57:57 436.795
ISS 27 May 01:11:58 01:14:52 27° 16° (NNE) 01:17:45 437.550
ITUPSAT 1 27 May 01:15:04 01:15:45 10° 56° (NE) 01:16:27 437.325
Oscar 19 27 May 01:15:29 01:19:10 19° 92° (E) 01:22:49 437.125/150
NANOSAT C BR1 27 May 01:23:47 01:27:42 38° 290° (WNW) 01:31:38 145.865
POLYITAN 1 27 May 01:28:41 01:32:28 31° 291° (WNW) 01:36:15 437.675
50 SAT 27 May 01:32:43 01:35:17 19° 265° (W) 01:37:51 437.505
SPROUT 27 May 01:33:25 01:35:50 15° 269° (W) 01:38:16 437.525
DUCHIFAT 1 27 May 01:34:26 01:38:14 33° 291° (WNW) 01:42:01 145.980
QB50P2 27 May 01:37:40 01:41:05 24° 293° (WNW) 01:44:31 145.880/145.840
VELOX 1 27 May 01:41:40 01:43:46 13° 270° (W) 01:45:52 145.980
BEESAT 27 May 01:45:14 01:48:43 20° 63° (ENE) 01:52:12 436.000
BUGSAT 1 27 May 01:51:09 01:55:15 66° 286° (WNW) 01:59:23 437.445
RS-15 27 May 01:54:04 02:05:41 57° 113° (ESE) 02:17:34 29.354- 29.394
UKube-1 27 May 02:06:05 02:09:40 25° 265° (W) 02:13:16 .
Tancredo 1 27 May 02:13:59 02:17:03 89° 338° (NNW) 02:20:08 437.200
DX 1 27 May 02:15:44 02:18:14 15° 269° (W) 02:20:45 434.975-435.025
EO-79 27 May 02:16:22 02:17:49 12° 300° (WNW) 02:19:16 145.935-145.965
Gurwin Techsat 1B 27 May 02:33:44 02:39:01 62° 101° (ESE) 02:44:16 435.225
YUBILEINY 27 May 02:45:39 02:53:39 39° 290° (WNW) 03:01:46 435.215
ITUPSAT 1 27 May 02:47:58 02:52:44 77° 74° (ENE) 02:57:32 437.325
ISS 27 May 02:48:19 02:51:36 70° 215° (SW) 02:54:51 437.550
Oscar 19 27 May 02:53:47 02:58:50 55° 289° (WNW) 03:03:49 437.125/150
MOZHAYETS 4 27 May 03:00:39 03:05:09 57° 73° (ENE) 03:09:42
PCSat 27 May 03:01:24 03:05:50 24° 44° (NE) 03:10:13 145.827
BEESAT 27 May 03:21:31 03:26:08 49° 260° (W) 03:30:47 436.000
CUBESAT XI-V 27 May 03:47:57 03:52:09 33° 68° (ENE) 03:56:23 437.345
O/OREOS (USA 219) 27 May 03:51:16 03:55:44 53° 109° (ESE) 04:00:13 437.305
Tancredo 1 27 May 03:51:25 03:52:22 11° 229° (SW) 03:53:18 437.200
KKS-1 27 May 03:51:47 03:55:40 31° 68° (ENE) 03:59:34 437.445
ITAMSAT 1 27 May 03:55:57 04:01:02 50° 100° (E) 04:06:05 435.822/435.867
RS-15 27 May 04:06:31 04:18:25 54° 317° (NW) 04:30:31 29.354- 29.394
AO-7 27 May 04:09:16 04:17:29 57° 103° (ESE) 04:25:39 .
Gurwin Techsat 1B 27 May 04:14:43 04:18:29 20° 299° (WNW) 04:22:15 435.225
STARS 27 May 04:21:45 04:25:28 28° 67° (ENE) 04:29:10 437.465
ITUPSAT 1 27 May 04:29:16 04:31:07 12° 271° (W) 04:32:58 437.325
MOZHAYETS 4 27 May 04:39:54 04:42:40 16° 270° (W) 04:45:26
PCSat 27 May 04:44:16 04:49:40 63° 244° (WSW) 04:55:00 145.827
AO-85 27 May 04:47:57 04:52:05 76° 124° (ESE) 04:56:05 145.980
BEESAT 2 27 May 05:20:49 05:23:46 20° 112° (ESE) 05:26:46 435.950
CUBESAT XI-V 27 May 05:25:31 05:29:32 27° 265° (W) 05:33:34 437.345
KKS-1 27 May 05:28:29 05:32:13 26° 264° (W) 05:35:58 437.445
O/OREOS (USA 219) 27 May 05:32:09 05:35:28 19° 307° (NW) 05:38:48 437.305
ITAMSAT 1 27 May 05:36:07 05:40:10 23° 298° (WNW) 05:44:12 435.822/435.867
BEESAT 3 27 May 05:38:44 05:42:41 85° 126° (SE) 05:46:43 437.485
DOVE 4 27 May 05:55:16 05:58:51 27° 96° (E) 06:02:30 437.250
LilacSat-2 27 May 05:55:32 05:57:51 15° 91° (E) 06:00:07 437.200
CUTE-I 27 May 05:55:33 05:58:50 16° 90° (E) 06:02:06 437.470
STARS 27 May 05:57:56 06:01:43 29° 264° (W) 06:05:32 437.465
SO-50 27 May 06:00:00 06:03:49 26° 43° (NE) 06:07:37 436.795
AO-7 27 May 06:02:30 06:09:55 38° 302° (WNW) 06:17:22 .
XW-2D 27 May 06:28:16 06:31:49 34° 97° (E) 06:35:20 145.860 - 145.880
AO-85 27 May 06:30:33 06:32:57 15° 322° (NW) 06:35:17 145.980
